Weather History for Bentonville, AR

Change the Weather History Date:

Wednesday, December 26, 2012

  Actual Average Record
Temperature  
Mean Temperature 26 °F -  
Max Temperature 33 °F 41 °F 69 °F (2008)
Min Temperature 19 °F 21 °F -8 °F (1983)
Degree Days  
Heating Degree Days 39    
Moisture  
Dew Point 16 °F    
Average Humidity 68    
Maximum Humidity 74    
Minimum Humidity 52    
Precipitation  
Precipitation 0.00 in - - ()
Sea Level Pressure  
Sea Level Pressure 30.10 in    
Wind  
Wind Speed 11 mph (North)    
Max Wind Speed 20 mph    
Max Gust Speed 26 mph    
Visibility 10 miles    
Events      
Averages and records for this station are not official NWS values.
T = Trace of Precipitation, MM = Missing Value Source: NWS Daily Summary

Daily Weather History Graph

Daily Weather History Graph

Search for Another Location

Airport:

Trip Planner

Search our weather history database for the weather conditions in past years. The results will help you decide how hot, cold, wet, or windy it might be!

Date:

Astronomy

Dec. 26, 2012 Rise Set
Actual Time 7:26 AM CST 5:08 PM CST
Civil Twilight 6:58 AM CST 5:37 PM CST
Nautical Twilight 6:25 AM CST 6:09 PM CST
Astronomical Twilight 5:54 AM CST 6:41 PM CST
Moon 4:02 PM CST (12/26) 5:51 AM CST (12/26)
Length of Visible Light 10h 39m
Length of Day
9h 41m
Waxing Gibbous, 97% of the Moon is Illuminated
Dec 26
Waxing Gibbous
Dec 28
Full
Jan 4
Last Quarter
Jan 11
New
Jan 18
First Quarter

Hourly Weather History & Observations

Time (CST) Temp. Windchill Dew Point Humidity Pressure Visibility Wind Dir Wind Speed Gust Speed Precip Events Conditions
12:15 AM 24.8 °F 11.5 °F 17.6 °F 74% 29.99 in 10.0 mi North 17.3 mph 21.9 mph N/A   Overcast
12:35 AM 24.8 °F 12.9 °F 15.8 °F 69% 30.00 in 10.0 mi North 13.8 mph 20.7 mph N/A   Overcast
12:55 AM 24.8 °F 12.9 °F 15.8 °F 69% 30.00 in 10.0 mi North 13.8 mph - N/A   Overcast
1:15 AM 24.8 °F 12.9 °F 15.8 °F 69% 30.01 in 10.0 mi North 13.8 mph 19.6 mph N/A   Overcast
1:35 AM 24.8 °F 11.1 °F 15.8 °F 69% 30.01 in 10.0 mi North 18.4 mph 26.5 mph N/A   Overcast
1:55 AM 23.0 °F 11.7 °F 15.8 °F 74% 30.02 in 10.0 mi North 11.5 mph - N/A   Overcast
2:15 AM 23.0 °F 8.3 °F 15.8 °F 74% 30.03 in 10.0 mi North 19.6 mph 23.0 mph N/A   Overcast
3:15 AM 21.2 °F 10.1 °F 12.2 °F 68% 30.05 in 10.0 mi NNW 10.4 mph 17.3 mph N/A   Overcast
3:55 AM 21.2 °F 10.9 °F 12.2 °F 68% 30.04 in 10.0 mi NNW 9.2 mph - N/A   Overcast
4:15 AM 19.4 °F 6.6 °F 12.2 °F 74% 30.05 in 10.0 mi North 12.7 mph 18.4 mph N/A   Overcast
4:55 AM 19.4 °F 7.2 °F 12.2 °F 74% 30.06 in 10.0 mi North 11.5 mph 16.1 mph N/A   Mostly Cloudy
5:15 AM 19.4 °F 7.2 °F 12.2 °F 74% 30.06 in 10.0 mi North 11.5 mph - N/A   Scattered Clouds
5:55 AM 19.4 °F 7.9 °F 12.2 °F 74% 30.06 in 10.0 mi NNW 10.4 mph - N/A   Overcast
6:15 AM 19.4 °F 10.4 °F 12.2 °F 74% 30.07 in 10.0 mi NNW 6.9 mph - N/A   Overcast
6:35 AM 19.4 °F 8.6 °F 12.2 °F 74% 30.07 in 10.0 mi North 9.2 mph - N/A   Overcast
6:55 AM 19.4 °F 7.9 °F 12.2 °F 74% 30.08 in 10.0 mi NNW 10.4 mph - N/A   Overcast
7:36 AM 21.2 °F 10.1 °F 12.2 °F 68% 30.09 in 10.0 mi North 10.4 mph - N/A   Overcast
8:15 AM 21.2 °F 12.6 °F 14.0 °F 74% 30.11 in 10.0 mi North 6.9 mph - N/A   Overcast
8:35 AM 21.2 °F 11.7 °F 14.0 °F 74% 30.11 in 10.0 mi NNW 8.1 mph - N/A   Overcast
8:55 AM 21.2 °F 12.6 °F 14.0 °F 74% 30.12 in 10.0 mi North 6.9 mph - N/A   Overcast
9:15 AM 21.2 °F 12.6 °F 14.0 °F 74% 30.13 in 10.0 mi North 6.9 mph - N/A   Overcast
9:35 AM 23.0 °F 14.7 °F 15.8 °F 74% 30.13 in 10.0 mi North 6.9 mph - N/A   Overcast
9:55 AM 24.8 °F 16.1 °F 15.8 °F 69% 30.15 in 10.0 mi North 8.1 mph - N/A   Overcast
10:15 AM 24.8 °F 16.1 °F 15.8 °F 69% 30.16 in 10.0 mi NNW 8.1 mph - N/A   Overcast
11:15 AM 26.6 °F 17.5 °F 17.6 °F 69% 30.15 in 10.0 mi North 9.2 mph - N/A   Overcast
11:55 AM 28.4 °F 21.2 °F 17.6 °F 64% 30.14 in 10.0 mi North 6.9 mph - N/A   Mostly Cloudy
12:15 PM 28.4 °F 21.2 °F 15.8 °F 59% 30.13 in 10.0 mi North 6.9 mph 17.3 mph N/A   Partly Cloudy
12:35 PM 30.2 °F 23.4 °F 17.6 °F 60% 30.12 in 10.0 mi NE 6.9 mph - N/A   Clear
12:55 PM 30.2 °F 21.9 °F 17.6 °F 60% 30.13 in 10.0 mi WNW 9.2 mph - N/A   Clear
1:15 PM 30.2 °F 24.3 °F 17.6 °F 60% 30.12 in 10.0 mi North 5.8 mph - N/A   Clear
1:35 PM 32.0 °F 24.8 °F 17.6 °F 55% 30.11 in 10.0 mi North 8.1 mph - N/A   Clear
2:15 PM 33.8 °F 25.3 °F 17.6 °F 52% 30.11 in 10.0 mi North 11.5 mph 16.1 mph N/A   Clear
2:35 PM 33.8 °F 25.8 °F 17.6 °F 52% 30.10 in 10.0 mi North 10.4 mph - N/A   Clear
2:55 PM 33.8 °F 26.4 °F 17.6 °F 52% 30.10 in 10.0 mi North 9.2 mph - N/A   Clear
3:15 PM 32.0 °F 23.6 °F 17.6 °F 55% 30.11 in 10.0 mi North 10.4 mph - N/A   Clear
3:35 PM 30.2 °F 22.6 °F 17.6 °F 60% 30.11 in 10.0 mi NNE 8.1 mph - N/A   Clear
3:55 PM 30.2 °F 22.6 °F 17.6 °F 60% 30.10 in 10.0 mi North 8.1 mph - N/A   Clear
4:15 PM 30.2 °F 22.6 °F 17.6 °F 60% 30.11 in 10.0 mi North 8.1 mph - N/A   Clear
4:35 PM 30.2 °F 23.4 °F 17.6 °F 60% 30.11 in 10.0 mi North 6.9 mph - N/A   Clear
4:55 PM 28.4 °F 22.2 °F 17.6 °F 64% 30.12 in 10.0 mi NNW 5.8 mph - N/A   Clear
5:15 PM 28.4 °F 21.2 °F 17.6 °F 64% 30.13 in 10.0 mi NNW 6.9 mph - N/A   Clear
5:35 PM 28.4 °F 21.2 °F 17.6 °F 64% 30.13 in 10.0 mi North 6.9 mph - N/A   Clear
5:55 PM 26.6 °F 17.5 °F 17.6 °F 69% 30.14 in 10.0 mi North 9.2 mph - N/A   Clear
6:15 PM 26.6 °F 19.1 °F 17.6 °F 69% 30.14 in 10.0 mi North 6.9 mph - N/A   Clear
7:15 PM 26.6 °F 18.2 °F 17.6 °F 69% 30.12 in 10.0 mi NE 8.1 mph - N/A   Clear
7:35 PM 26.6 °F 16.8 °F 17.6 °F 69% 30.11 in 10.0 mi ENE 10.4 mph - N/A   Clear
7:55 PM 26.6 °F 18.2 °F 17.6 °F 69% 30.12 in 10.0 mi NNE 8.1 mph - N/A   Clear
8:15 PM 26.6 °F 21.2 °F 17.6 °F 69% 30.12 in 10.0 mi NE 4.6 mph - N/A   Clear
8:35 PM 26.6 °F 20.0 °F 17.6 °F 69% 30.12 in 10.0 mi ENE 5.8 mph - N/A   Clear
9:15 PM 26.6 °F 21.2 °F 17.6 °F 69% 30.12 in 10.0 mi North 4.6 mph - N/A   Clear
9:35 PM 24.8 °F 19.1 °F 17.6 °F 74% 30.11 in 10.0 mi NE 4.6 mph - N/A   Clear
9:55 PM 24.8 °F - 17.6 °F 74% 30.12 in 10.0 mi Calm Calm - N/A   Clear
10:15 PM 24.8 °F - 17.6 °F 74% 30.11 in 10.0 mi Calm Calm - N/A   Clear
10:35 PM 24.8 °F - 17.6 °F 74% 30.11 in 10.0 mi Calm Calm - N/A   Clear
10:55 PM 24.8 °F 19.1 °F 17.6 °F 74% 30.09 in 10.0 mi East 4.6 mph - N/A   Clear
11:15 PM 24.8 °F 19.1 °F 17.6 °F 74% 30.10 in 10.0 mi East 4.6 mph - N/A   Clear
11:35 PM 24.8 °F 19.1 °F 17.6 °F 74% 30.10 in 10.0 mi ESE 4.6 mph - N/A   Clear
11:55 PM 24.8 °F 17.9 °F 17.6 °F 74% 30.09 in 10.0 mi East 5.8 mph - N/A   Clear